Location: Haliburton Scout Reserve
(45.0900°N, 78.3200°W)
Time: 11:10:02
(UTC-05:00)

X-37B - Visible Passes

Search period start: 03 December 2022 00:00
Search period end: 13 December 2022 00:00
Orbit: 277 x 277 km, 45.0° (Epoch: 01 November)

Date Brightness Start Highest point End Pass type
(mag) Time Alt. Az. Time Alt. Az. Time Alt. Az.
06 Dec 3.0 18:31:46 10° SSW 18:32:02 12° SSW 18:32:02 12° SSW visible
07 Dec 2.6 18:31:56 10° SW 18:32:48 17° SSW 18:32:48 17° SSW visible
08 Dec 2.3 18:32:22 10° SW 18:33:32 23° SW 18:33:32 23° SW visible
09 Dec 2.3 16:59:54 10° S 17:01:29 15° SSE 17:03:04 10° ESE visible
09 Dec 2.2 18:32:56 10° WSW 18:34:13 26° WSW 18:34:13 26° WSW visible
10 Dec 1.7 16:59:56 10° SSW 17:02:02 24° SSE 17:04:07 10° E visible
10 Dec 2.2 18:33:35 10° W 18:34:52 27° WSW 18:34:52 27° WSW visible
11 Dec 2.3 18:34:16 10° W 18:35:31 26° W 18:35:31 26° W visible
12 Dec 2.3 18:34:57 10° W 18:36:09 25° W 18:36:09 25° W visible
